Location: Ahausen
(50.4985°N, 8.2722°E)
Time: 15:18:53
(UTC+00:00)

HJ-1C - Pass Details

Date: 18 September 2020
Orbit: 432 x 443 km, 97.1° (Epoch: 21 October)

Event Time Altitude Azimuth Distance (km) Brightness Sun altitude
Rises 18:26:06 0° 170° (S) 2,398 6.8 -9.1°
Reaches altitude 10° 18:28:06 10° 172° (S) 1,536 5.9 -9.5°
Maximum altitude 18:31:23 73° 258° (WSW) 460 3.6 -10.0°
Drops below altitude 10° 18:34:42 10° 344° (NNW) 1,553 6.6 -10.5°
Sets 18:36:44 0° 346° (NNW) 2,428 7.6 -10.8°
